Terug naar catalogus

DELTA 4 R/B

ActiefHEO
NORAD 36412·ROCKET BODY·🇺🇸 United States

Gelanceerd Mar 4, 2010 vanaf Cape Canaveral Space Force Station

Loading…

Volgende Passages (komende 24 uur)

TLE

VersSource: Space-Track

Epoch: Sep 14, 2026, 03:28 UTC

1 36412U 10008B   26257.14450419 -.00000044  00000-0  00000-0 0  9994
2 36412  13.4286 355.2618 5256995 118.2260 193.1942  1.92895536116424

Volg DELTA 4 R/B in realtime met AllMySat

Download on the App Store